Location: Zagreb
(45.8000°N, 16.0000°E)
Time: 09:21:42
(UTC+02:00)

Explorer 7 - All Passes

Search period start: 15 July 2024 00:00
Search period end: 25 July 2024 00:00
Orbit: 465 x 619 km, 50.3° (Epoch: 14 July)

Date Brightness Start Highest point End Pass type
(mag) Time Alt. Az. Time Alt. Az. Time Alt. Az.
15 Jul - 02:38:46 10° SSW 02:42:59 37° SE 02:47:07 10° ENE visible
15 Jul - 04:18:01 10° WSW 04:22:34 69° NNW 04:26:59 10° ENE visible
15 Jul - 05:58:22 10° WNW 06:02:42 45° N 06:06:51 10° ENE daylight
15 Jul - 07:38:24 10° WNW 07:42:48 73° NNE 07:46:57 10° ESE daylight
15 Jul - 09:18:29 10° WNW 09:22:14 30° SW 09:25:48 10° SSE daylight
16 Jul - 02:30:28 10° SW 02:34:50 46° SE 02:39:09 10° ENE visible
16 Jul - 04:10:01 10° W 04:14:32 62° NNW 04:18:56 10° ENE visible
16 Jul - 05:50:22 10° WNW 05:54:42 46° N 05:58:53 10° ENE daylight
16 Jul - 07:30:20 10° WNW 07:34:45 85° NNE 07:38:56 10° ESE daylight
16 Jul - 09:10:35 10° W 09:14:03 24° SW 09:17:22 10° SSE daylight
17 Jul - 00:45:40 10° SSE 00:47:41 13° SE 00:49:43 10° ESE visible
17 Jul - 02:22:13 10° SW 02:26:41 56° SSE 02:31:07 10° ENE visible
17 Jul - 04:01:59 10° W 04:06:29 56° NNW 04:10:51 10° ENE visible
17 Jul - 05:42:19 10° WNW 05:46:41 48° N 05:50:53 10° E daylight
17 Jul - 07:22:15 10° WNW 07:26:40 83° SSW 07:30:50 10° ESE daylight
17 Jul - 09:02:45 10° W 09:05:49 19° SW 09:08:47 10° S daylight
18 Jul - 00:36:35 10° S 00:39:25 16° SE 00:42:15 10° E visible
18 Jul - 02:14:00 10° SW 02:18:32 67° SSE 02:23:02 10° ENE visible
18 Jul - 03:53:58 10° W 03:58:25 52° NNW 04:02:47 10° ENE visible
18 Jul - 05:34:14 10° WNW 05:38:38 51° N 05:42:52 10° E daylight
18 Jul - 07:14:07 10° WNW 07:18:31 69° SSW 07:22:41 10° SE daylight
18 Jul - 08:55:01 10° W 08:57:33 15° SW 09:00:00 10° S daylight
19 Jul - 00:27:45 10° S 00:31:08 21° SE 00:34:30 10° E visible
19 Jul - 02:05:48 10° WSW 02:10:22 80° SSE 02:14:55 10° ENE visible
19 Jul - 03:45:54 10° W 03:50:21 49° N 03:54:41 10° ENE visible
19 Jul - 05:26:07 10° WNW 05:30:33 55° NNE 05:34:49 10° E daylight
19 Jul - 07:06:00 10° WNW 07:10:20 57° SSW 07:14:28 10° SE daylight
19 Jul - 08:47:36 10° WSW 08:49:13 12° SW 08:50:50 10° SSW daylight
20 Jul - 00:19:05 10° SSW 00:22:50 26° SE 00:26:36 10° E visible
20 Jul - 01:57:37 10° WSW 02:02:12 88° NNW 02:06:45 10° ENE visible
20 Jul - 03:37:49 10° W 03:42:15 47° N 03:46:34 10° ENE visible
20 Jul - 05:17:58 10° WNW 05:22:26 60° NNE 05:26:44 10° E daylight
20 Jul - 06:57:52 10° WNW 07:02:07 46° SW 07:06:10 10° SE daylight
21 Jul - 00:10:31 10° SSW 00:14:32 31° SE 00:18:34 10° ENE visible
21 Jul - 01:49:27 10° WSW 01:54:01 77° NNW 01:58:34 10° ENE visible
21 Jul - 03:29:42 10° WNW 03:34:07 47° N 03:38:26 10° ENE visible
21 Jul - 05:09:46 10° WNW 05:14:17 67° NNE 05:18:37 10° ESE daylight
21 Jul - 06:49:44 10° WNW 06:53:50 38° SW 06:57:46 10° SSE daylight
22 Jul - 00:02:01 10° SSW 00:06:13 39° SE 00:10:28 10° ENE visible
22 Jul - 01:41:16 10° WSW 01:45:49 68° NNW 01:50:21 10° ENE visible
22 Jul - 03:21:34 10° WNW 03:25:59 47° N 03:30:18 10° ENE visible
22 Jul - 05:01:33 10° WNW 05:06:06 76° NNE 05:10:27 10° ESE daylight
22 Jul - 06:41:38 10° WNW 06:45:31 31° SW 06:49:17 10° SSE daylight
22 Jul - 23:53:34 10° SW 23:57:55 47° SE 00:02:18 10° ENE visible
23 Jul - 01:33:05 10° W 01:37:37 61° NNW 01:42:08 10° ENE visible
23 Jul - 03:13:23 10° WNW 03:17:49 47° N 03:22:09 10° E visible
23 Jul - 04:53:19 10° WNW 04:57:52 87° NNE 05:02:14 10° ESE visible
23 Jul - 06:33:33 10° W 06:37:10 25° SW 06:40:40 10° SSE daylight
23 Jul - 22:08:32 10° SSE 22:10:38 13° SE 22:12:44 10° ESE visible
23 Jul - 23:45:10 10° SW 23:49:36 57° SSE 23:54:05 10° ENE visible
24 Jul - 01:24:54 10° W 01:29:24 56° NNW 01:33:53 10° ENE visible
24 Jul - 03:05:10 10° WNW 03:09:37 49° N 03:13:58 10° E visible
24 Jul - 04:45:03 10° WNW 04:49:35 81° SSW 04:53:58 10° ESE visible
24 Jul - 06:25:31 10° W 06:28:46 20° SW 06:31:55 10° S daylight
24 Jul - 21:59:20 10° S 22:02:10 17° SE 22:05:03 10° E visible
24 Jul - 23:36:47 10° SW 23:41:16 69° SSE 23:45:49 10° ENE visible
